Time,TemperatureF,DewpointF,PressureIn,WindDirection,WindDirectionDegrees,WindSpeedMPH,WindSpeedGustMPH,Humidity,HourlyPrecipIn,Conditions,Clouds,dailyrainin,SolarRadiationWatts/m^2,SoftwareType,DateUTC
2013-09-19 00:00:00,47.5,46.1,30.22,NW,314,0.0,0.0,95,0.00,,---,0.00,0.00,VWS V14.01,2013-09-19 04:00:00,
2013-09-19 00:01:00,45.7,44.3,30.21,NW,314,0.0,0.0,95,0.00,,---,0.00,0.00,VWS V14.01,2013-09-19 04:01:00,
2013-09-19 00:06:00,45.6,44.5,30.22,NW,314,0.0,0.0,96,0.00,,---,0.00,0.00,VWS V14.01,2013-09-19 04:06:00,
2013-09-19 00:08:00,45.6,44.5,30.21,NW,314,0.0,0.0,96,0.00,,---,0.00,0.00,VWS V14.01,2013-09-19 04:08:00,
2013-09-19 00:13:00,45.5,44.4,30.22,NW,314,0.0,0.0,96,0.00,,---,0.00,0.00,VWS V14.01,2013-09-19 04:13:00,
2013-09-19 00:18:00,45.4,44.0,30.21,NW,314,0.0,0.0,95,0.00,,---,0.00,0.00,VWS V14.01,2013-09-19 04:18:00,
2013-09-19 00:23:00,45.3,44.2,30.21,NW,314,0.0,0.0,96,0.00,,---,0.00,0.00,VWS V14.01,2013-09-19 04:23:00,
2013-09-19 00:28:00,45.4,44.3,30.22,NW,314,0.0,0.0,96,0.00,,---,0.00,0.00,VWS V14.01,2013-09-19 04:28:00,
2013-09-19 00:30:00,46.9,45.5,30.22,NW,314,0.0,0.0,95,0.00,,---,0.00,0.00,VWS V14.01,2013-09-19 04:30:00,
2013-09-19 00:33:00,45.3,44.2,30.22,NW,314,0.0,0.0,96,0.00,,---,0.00,0.00,VWS V14.01,2013-09-19 04:33:00,
2013-09-19 00:38:00,45.2,44.1,30.22,NW,314,0.0,0.0,96,0.00,,---,0.00,0.00,VWS V14.01,2013-09-19 04:38:00,
2013-09-19 00:43:00,45.1,44.0,30.21,NW,314,0.0,0.0,96,0.00,,---,0.00,0.00,VWS V14.01,2013-09-19 04:43:00,
2013-09-19 00:48:00,45.1,44.0,30.21,NW,314,0.0,0.0,96,0.00,,---,0.00,0.00,VWS V14.01,2013-09-19 04:48:00,
2013-09-19 00:53:00,45.0,43.9,30.21,NW,314,0.0,0.0,96,0.00,,---,0.00,0.00,VWS V14.01,2013-09-19 04:53:00,
2013-09-19 00:58:00,44.9,43.8,30.21,NW,314,0.0,0.0,96,0.00,,---,0.00,0.00,VWS V14.01,2013-09-19 04:58:00,
2013-09-19 01:00:00,45.7,44.3,30.21,NW,314,0.0,0.0,95,0.00,,---,0.00,0.00,VWS V14.01,2013-09-19 05:00:00,
2013-09-19 01:03:00,44.8,43.7,30.21,NW,314,0.0,0.0,96,0.00,,---,0.00,0.00,VWS V14.01,2013-09-19 05:03:00,
2013-09-19 01:08:00,44.7,43.6,30.21,NW,314,0.0,0.0,96,0.00,,---,0.00,0.00,VWS V14.01,2013-09-19 05:08:00,
2013-09-19 01:13:00,44.7,43.6,30.21,NW,314,0.0,0.0,96,0.00,,---,0.00,0.00,VWS V14.01,2013-09-19 05:13:00,
2013-09-19 01:18:00,44.6,43.5,30.21,NW,314,0.0,0.0,96,0.00,,---,0.00,0.00,VWS V14.01,2013-09-19 05:18:00,
2013-09-19 01:23:00,44.5,43.4,30.21,NW,314,0.0,0.0,96,0.00,,---,0.00,0.00,VWS V14.01,2013-09-19 05:23:00,
2013-09-19 01:28:00,44.4,43.3,30.21,NW,314,0.0,0.0,96,0.00,,---,0.00,0.00,VWS V14.01,2013-09-19 05:28:00,
2013-09-19 01:30:00,45.3,44.2,30.22,NW,314,0.0,0.0,96,0.00,,---,0.00,0.00,VWS V14.01,2013-09-19 05:30:00,
2013-09-19 01:33:00,44.2,43.1,30.21,NW,314,0.0,0.0,96,0.00,,---,0.00,0.00,VWS V14.01,2013-09-19 05:33:00,
2013-09-19 01:38:00,44.1,43.0,30.21,NW,314,0.0,0.0,96,0.00,,---,0.00,0.00,VWS V14.01,2013-09-19 05:38:00,
2013-09-19 01:43:00,44.0,42.9,30.21,NW,314,0.0,0.0,96,0.00,,---,0.00,0.00,VWS V14.01,2013-09-19 05:43:00,
2013-09-19 01:48:00,43.8,42.7,30.21,NW,314,0.0,0.0,96,0.00,,---,0.00,0.00,VWS V14.01,2013-09-19 05:48:00,
2013-09-19 01:53:00,43.7,42.6,30.20,NW,314,0.0,0.0,96,0.00,,---,0.00,0.00,VWS V14.01,2013-09-19 05:53:00,
2013-09-19 01:58:00,43.6,42.5,30.20,NW,314,0.0,0.0,96,0.00,,---,0.00,0.00,VWS V14.01,2013-09-19 05:58:00,
2013-09-19 02:00:00,44.9,43.8,30.21,NW,314,0.0,0.0,96,0.00,,---,0.00,0.00,VWS V14.01,2013-09-19 06:00:00,
2013-09-19 02:03:00,43.6,42.5,30.20,NW,314,0.0,0.0,96,0.00,,---,0.00,0.00,VWS V14.01,2013-09-19 06:03:00,
2013-09-19 02:08:00,43.6,42.5,30.20,NW,314,0.0,0.0,96,0.00,,---,0.00,0.00,VWS V14.01,2013-09-19 06:08:00,
2013-09-19 02:13:00,43.6,42.5,30.21,NW,314,0.0,0.0,96,0.00,,---,0.00,0.00,VWS V14.01,2013-09-19 06:13:00,
2013-09-19 02:18:00,43.5,42.4,30.21,NW,314,0.0,0.0,96,0.00,,---,0.00,0.00,VWS V14.01,2013-09-19 06:18:00,
2013-09-19 02:23:00,43.5,42.4,30.21,NW,314,0.0,0.0,96,0.00,,---,0.00,0.00,VWS V14.01,2013-09-19 06:23:00,
2013-09-19 02:28:00,43.4,42.6,30.21,NW,314,0.0,0.0,97,0.00,,---,0.00,0.00,VWS V14.01,2013-09-19 06:28:00,
2013-09-19 02:30:00,44.3,43.2,30.21,NW,314,0.0,0.0,96,0.00,,---,0.00,0.00,VWS V14.01,2013-09-19 06:30:00,
2013-09-19 02:33:00,43.3,42.2,30.21,NW,314,0.0,0.0,96,0.00,,---,0.00,0.00,VWS V14.01,2013-09-19 06:33:00,
2013-09-19 02:38:00,43.3,42.2,30.21,NW,314,0.0,0.0,96,0.00,,---,0.00,0.00,VWS V14.01,2013-09-19 06:38:00,
2013-09-19 02:43:00,43.3,42.2,30.21,NW,314,0.0,0.0,96,0.00,,---,0.00,0.00,VWS V14.01,2013-09-19 06:43:00,
2013-09-19 02:48:00,43.2,42.1,30.21,NW,314,0.0,0.0,96,0.00,,---,0.00,0.00,VWS V14.01,2013-09-19 06:48:00,
2013-09-19 02:53:00,43.3,42.5,30.20,NW,314,0.0,0.0,97,0.00,,---,0.00,0.00,VWS V14.01,2013-09-19 06:53:00,
2013-09-19 02:58:00,43.2,42.4,30.20,NW,314,0.0,0.0,97,0.00,,---,0.00,0.00,VWS V14.01,2013-09-19 06:58:00,
2013-09-19 03:00:00,43.6,42.5,30.20,NW,314,0.0,0.0,96,0.00,,---,0.00,0.00,VWS V14.01,2013-09-19 07:00:00,
2013-09-19 03:03:00,43.2,42.1,30.20,NW,314,0.0,0.0,96,0.00,,---,0.00,0.00,VWS V14.01,2013-09-19 07:03:00,
2013-09-19 03:08:00,43.1,42.0,30.20,NW,314,0.0,0.0,96,0.00,,---,0.00,0.00,VWS V14.01,2013-09-19 07:08:00,
2013-09-19 03:13:00,43.0,42.2,30.20,NW,314,0.0,0.0,97,0.00,,---,0.00,0.00,VWS V14.01,2013-09-19 07:13:00,
2013-09-19 03:18:00,42.9,42.1,30.20,NW,314,0.0,0.0,97,0.00,,---,0.00,0.00,VWS V14.01,2013-09-19 07:18:00,
2013-09-19 03:23:00,42.7,41.9,30.20,NW,314,0.0,0.0,97,0.00,,---,0.00,0.00,VWS V14.01,2013-09-19 07:23:00,
2013-09-19 03:28:00,42.6,41.5,30.20,NW,314,0.0,0.0,96,0.00,,---,0.00,0.00,VWS V14.01,2013-09-19 07:28:00,
2013-09-19 03:30:00,43.4,42.3,30.21,NW,314,0.0,0.0,96,0.00,,---,0.00,0.00,VWS V14.01,2013-09-19 07:30:00,
2013-09-19 03:33:00,42.5,41.4,30.19,NW,314,0.0,0.0,96,0.00,,---,0.00,0.00,VWS V14.01,2013-09-19 07:33:00,
2013-09-19 03:38:00,42.4,41.6,30.19,NW,314,0.0,0.0,97,0.00,,---,0.00,0.00,VWS V14.01,2013-09-19 07:38:00,
2013-09-19 03:43:00,42.4,41.6,30.19,NW,314,0.0,0.0,97,0.00,,---,0.00,0.00,VWS V14.01,2013-09-19 07:43:00,
2013-09-19 03:48:00,42.4,41.6,30.19,NW,314,0.0,0.0,97,0.00,,---,0.00,0.00,VWS V14.01,2013-09-19 07:48:00,
2013-09-19 03:53:00,42.4,41.6,30.19,NW,314,0.0,0.0,97,0.00,,---,0.00,0.00,VWS V14.01,2013-09-19 07:53:00,
2013-09-19 03:58:00,42.4,41.6,30.19,NW,314,0.0,0.0,97,0.00,,---,0.00,0.00,VWS V14.01,2013-09-19 07:58:00,
2013-09-19 04:00:00,43.2,42.4,30.20,NW,314,0.0,0.0,97,0.00,,---,0.00,0.00,VWS V14.01,2013-09-19 08:00:00,
2013-09-19 04:03:00,42.3,41.5,30.19,NW,314,0.0,0.0,97,0.00,,---,0.00,0.00,VWS V14.01,2013-09-19 08:03:00,
2013-09-19 04:08:00,42.2,41.4,30.19,NW,314,0.0,0.0,97,0.00,,---,0.00,0.00,VWS V14.01,2013-09-19 08:08:00,
2013-09-19 04:23:00,42.2,41.4,30.19,NW,314,0.0,0.0,97,0.00,,---,0.00,0.00,VWS V14.01,2013-09-19 08:23:00,
2013-09-19 04:28:00,42.1,41.3,30.19,NW,314,0.0,0.0,97,0.00,,---,0.00,0.00,VWS V14.01,2013-09-19 08:28:00,
2013-09-19 04:30:00,42.5,41.4,30.20,NW,314,0.0,0.0,96,0.00,,---,0.00,0.00,VWS V14.01,2013-09-19 08:30:00,
2013-09-19 04:33:00,42.0,41.2,30.19,NW,314,0.0,0.0,97,0.00,,---,0.00,0.00,VWS V14.01,2013-09-19 08:33:00,
2013-09-19 04:38:00,41.8,41.0,30.19,NW,314,0.0,0.0,97,0.00,,---,0.00,0.00,VWS V14.01,2013-09-19 08:38:00,
2013-09-19 04:43:00,41.7,40.9,30.19,NW,314,0.0,0.0,97,0.00,,---,0.00,0.00,VWS V14.01,2013-09-19 08:43:00,
2013-09-19 04:48:00,41.6,40.8,30.19,NW,314,0.0,0.0,97,0.00,,---,0.00,0.00,VWS V14.01,2013-09-19 08:48:00,
2013-09-19 04:53:00,41.6,40.8,30.19,NW,314,0.0,0.0,97,0.00,,---,0.00,0.00,VWS V14.01,2013-09-19 08:53:00,
2013-09-19 04:58:00,41.6,40.8,30.20,NW,314,0.0,0.0,97,0.00,,---,0.00,0.00,VWS V14.01,2013-09-19 08:58:00,
2013-09-19 05:00:00,42.3,41.5,30.19,NW,314,0.0,0.0,97,0.00,,---,0.00,0.00,VWS V14.01,2013-09-19 09:00:00,
2013-09-19 05:03:00,41.5,40.7,30.20,NW,314,0.0,0.0,97,0.00,,---,0.00,0.00,VWS V14.01,2013-09-19 09:03:00,
2013-09-19 05:08:00,41.3,40.5,30.20,NW,314,0.0,0.0,97,0.00,,---,0.00,0.00,VWS V14.01,2013-09-19 09:08:00,
2013-09-19 05:13:00,41.1,40.3,30.20,NW,314,0.0,0.0,97,0.00,,---,0.00,0.00,VWS V14.01,2013-09-19 09:13:00,
2013-09-19 05:18:00,40.9,40.1,30.20,NW,314,0.0,0.0,97,0.00,,---,0.00,0.00,VWS V14.01,2013-09-19 09:18:00,
2013-09-19 05:23:00,40.9,40.1,30.20,NW,314,0.0,0.0,97,0.00,,---,0.00,0.00,VWS V14.01,2013-09-19 09:23:00,
2013-09-19 05:28:00,40.9,40.1,30.20,NW,314,0.0,0.0,97,0.00,,---,0.00,0.00,VWS V14.01,2013-09-19 09:28:00,
2013-09-19 05:30:00,42.1,41.3,30.19,NW,314,0.0,0.0,97,0.00,,---,0.00,0.00,VWS V14.01,2013-09-19 09:30:00,
2013-09-19 05:33:00,40.9,40.1,30.20,NW,314,0.0,0.0,97,0.00,,---,0.00,0.00,VWS V14.01,2013-09-19 09:33:00,
2013-09-19 05:38:00,41.0,40.2,30.20,NW,314,0.0,0.0,97,0.00,,---,0.00,0.00,VWS V14.01,2013-09-19 09:38:00,
2013-09-19 05:43:00,41.1,40.3,30.20,NW,314,0.0,0.0,97,0.00,,---,0.00,0.00,VWS V14.01,2013-09-19 09:43:00,
2013-09-19 05:48:00,41.1,40.3,30.20,NW,314,0.0,0.0,97,0.00,,---,0.00,0.00,VWS V14.01,2013-09-19 09:48:00,
2013-09-19 05:53:00,41.1,40.3,30.20,NW,314,0.0,0.0,97,0.00,,---,0.00,0.00,VWS V14.01,2013-09-19 09:53:00,
2013-09-19 05:58:00,41.0,40.2,30.20,NW,314,0.0,0.0,97,0.00,,---,0.00,0.00,VWS V14.01,2013-09-19 09:58:00,
2013-09-19 06:00:00,41.5,40.7,30.20,NW,314,0.0,0.0,97,0.00,,---,0.00,0.00,VWS V14.01,2013-09-19 10:00:00,
2013-09-19 06:03:00,40.9,40.1,30.20,NW,314,0.0,0.0,97,0.00,,---,0.00,0.00,VWS V14.01,2013-09-19 10:03:00,
2013-09-19 06:08:00,40.8,40.0,30.20,NW,314,0.0,0.0,97,0.00,,---,0.00,0.00,VWS V14.01,2013-09-19 10:08:00,
2013-09-19 06:13:00,40.7,39.9,30.20,NW,314,0.0,0.0,97,0.00,,---,0.00,0.00,VWS V14.01,2013-09-19 10:13:00,
2013-09-19 06:18:00,40.7,39.9,30.20,NW,314,0.0,0.0,97,0.00,,---,0.00,0.00,VWS V14.01,2013-09-19 10:18:00,
2013-09-19 06:23:00,40.6,39.8,30.20,NW,314,0.0,0.0,97,0.00,,---,0.00,0.00,VWS V14.01,2013-09-19 10:23:00,
2013-09-19 06:28:00,40.6,39.8,30.20,NW,314,0.0,0.0,97,0.00,,---,0.00,0.00,VWS V14.01,2013-09-19 10:28:00,
2013-09-19 06:30:00,40.9,40.1,30.20,NW,314,0.0,0.0,97,0.00,,---,0.00,0.00,VWS V14.01,2013-09-19 10:30:00,
2013-09-19 06:33:00,40.5,39.7,30.20,NW,314,0.0,0.0,97,0.00,,---,0.00,0.00,VWS V14.01,2013-09-19 10:33:00,
2013-09-19 06:38:00,40.3,39.5,30.20,NW,314,0.0,0.0,97,0.00,,---,0.00,0.00,VWS V14.01,2013-09-19 10:38:00,
2013-09-19 06:43:00,40.2,39.4,30.21,NW,314,0.0,0.0,97,0.00,,---,0.00,0.00,VWS V14.01,2013-09-19 10:43:00,
2013-09-19 06:48:00,40.2,39.4,30.21,NW,314,0.0,0.0,97,0.00,,---,0.00,5.00,VWS V14.01,2013-09-19 10:48:00,
2013-09-19 06:53:00,40.2,39.4,30.21,NW,314,0.0,0.0,97,0.00,,---,0.00,7.00,VWS V14.01,2013-09-19 10:53:00,
2013-09-19 06:58:00,40.1,39.3,30.21,NW,314,0.0,0.0,97,0.00,,---,0.00,9.00,VWS V14.01,2013-09-19 10:58:00,
2013-09-19 07:00:00,40.9,40.1,30.20,NW,314,0.0,0.0,97,0.00,,---,0.00,0.00,VWS V14.01,2013-09-19 11:00:00,
2013-09-19 07:03:00,40.2,39.4,30.21,NW,314,0.0,0.0,97,0.00,,---,0.00,14.00,VWS V14.01,2013-09-19 11:03:00,
2013-09-19 07:08:00,40.2,39.4,30.21,NW,314,0.0,0.0,97,0.00,,---,0.00,18.00,VWS V14.01,2013-09-19 11:08:00,
2013-09-19 07:13:00,40.2,39.4,30.21,NW,314,0.0,0.0,97,0.00,,---,0.00,21.00,VWS V14.01,2013-09-19 11:13:00,
2013-09-19 07:18:00,40.2,39.4,30.21,NW,314,0.0,0.0,97,0.00,,---,0.00,23.00,VWS V14.01,2013-09-19 11:18:00,
2013-09-19 07:23:00,40.5,39.7,30.21,NW,314,0.0,0.0,97,0.00,,---,0.00,35.00,VWS V14.01,2013-09-19 11:23:00,
2013-09-19 07:28:00,41.0,40.2,30.21,NW,314,0.0,0.0,97,0.00,,---,0.00,76.00,VWS V14.01,2013-09-19 11:28:00,
2013-09-19 07:30:00,40.5,39.7,30.20,NW,314,0.0,0.0,97,0.00,,---,0.00,0.00,VWS V14.01,2013-09-19 11:30:00,
2013-09-19 07:33:00,41.8,41.3,30.21,NW,314,0.0,0.0,98,0.00,,---,0.00,90.00,VWS V14.01,2013-09-19 11:33:00,
2013-09-19 07:38:00,42.3,41.8,30.21,NW,314,0.0,0.0,98,0.00,,---,0.00,105.00,VWS V14.01,2013-09-19 11:38:00,
2013-09-19 07:43:00,43.0,42.5,30.21,NW,314,0.0,0.0,98,0.00,,---,0.00,121.00,VWS V14.01,2013-09-19 11:43:00,
2013-09-19 07:48:00,44.1,43.6,30.20,NW,314,0.0,0.0,98,0.00,,---,0.00,137.00,VWS V14.01,2013-09-19 11:48:00,
2013-09-19 07:53:00,45.1,44.6,30.20,NW,314,0.0,0.0,98,0.00,,---,0.00,155.00,VWS V14.01,2013-09-19 11:53:00,
2013-09-19 07:58:00,46.2,45.7,30.20,NW,314,0.0,0.0,98,0.00,,---,0.00,172.00,VWS V14.01,2013-09-19 11:58:00,
2013-09-19 08:00:00,40.2,39.4,30.21,NW,314,0.0,0.0,97,0.00,,---,0.00,11.00,VWS V14.01,2013-09-19 12:00:00,
2013-09-19 08:03:00,47.0,46.5,30.20,NW,314,0.0,0.0,98,0.00,,---,0.00,186.00,VWS V14.01,2013-09-19 12:03:00,
2013-09-19 08:08:00,47.7,47.2,30.20,NW,314,0.0,0.0,98,0.00,,---,0.00,204.00,VWS V14.01,2013-09-19 12:08:00,
2013-09-19 08:13:00,48.5,48.0,30.20,NW,314,0.0,0.0,98,0.00,,---,0.00,220.00,VWS V14.01,2013-09-19 12:13:00,
2013-09-19 08:18:00,49.4,48.9,30.20,NW,314,0.0,0.0,98,0.00,,---,0.00,237.00,VWS V14.01,2013-09-19 12:18:00,
2013-09-19 08:23:00,50.2,49.7,30.20,NW,314,0.0,0.0,98,0.00,,---,0.00,253.00,VWS V14.01,2013-09-19 12:23:00,
2013-09-19 08:28:00,51.2,50.7,30.20,NW,314,0.0,0.0,98,0.00,,---,0.00,267.00,VWS V14.01,2013-09-19 12:28:00,
2013-09-19 08:30:00,41.5,41.0,30.21,NW,314,0.0,0.0,98,0.00,,---,0.00,86.00,VWS V14.01,2013-09-19 12:30:00,
2013-09-19 08:33:00,51.7,50.9,30.20,NW,314,0.0,0.0,97,0.00,,---,0.00,283.00,VWS V14.01,2013-09-19 12:33:00,
2013-09-19 08:38:00,52.1,50.7,30.20,NW,314,0.0,0.0,95,0.00,,---,0.00,297.00,VWS V14.01,2013-09-19 12:38:00,
2013-09-19 08:43:00,52.9,51.2,30.20,NW,314,0.0,0.0,94,0.00,,---,0.00,323.00,VWS V14.01,2013-09-19 12:43:00,
2013-09-19 08:48:00,53.8,51.8,30.20,NW,314,0.0,0.0,93,0.00,,---,0.00,343.00,VWS V14.01,2013-09-19 12:48:00,
2013-09-19 08:52:00,54.7,52.4,30.19,NW,314,0.0,0.0,92,0.00,,---,0.00,359.00,VWS V14.01,2013-09-19 12:52:00,
2013-09-19 08:57:00,55.3,52.1,30.19,NW,314,0.0,0.0,89,0.00,,---,0.00,373.00,VWS V14.01,2013-09-19 12:57:00,
2013-09-19 09:00:00,46.7,46.2,30.20,NW,314,0.0,0.0,98,0.00,,---,0.00,181.00,VWS V14.01,2013-09-19 13:00:00,
2013-09-19 09:02:00,55.9,52.7,30.19,NW,314,0.0,0.0,89,0.00,,---,0.00,387.00,VWS V14.01,2013-09-19 13:02:00,
2013-09-19 09:07:00,56.5,53.0,30.19,NW,314,0.0,0.0,88,0.00,,---,0.00,401.00,VWS V14.01,2013-09-19 13:07:00,
2013-09-19 09:12:00,57.2,53.1,30.20,NW,314,0.0,0.0,86,0.00,,---,0.00,413.00,VWS V14.01,2013-09-19 13:12:00,
2013-09-19 09:17:00,57.6,53.8,30.19,NW,314,0.0,0.0,87,0.00,,---,0.00,429.00,VWS V14.01,2013-09-19 13:17:00,
2013-09-19 09:22:00,58.1,53.0,30.20,NW,314,0.0,0.0,83,0.00,,---,0.00,443.00,VWS V14.01,2013-09-19 13:22:00,
2013-09-19 09:27:00,58.6,52.1,30.19,NW,314,0.0,0.0,79,0.00,,---,0.00,457.00,VWS V14.01,2013-09-19 13:27:00,
2013-09-19 09:30:00,51.4,50.6,30.20,NW,314,0.0,0.0,97,0.00,,---,0.00,276.00,VWS V14.01,2013-09-19 13:30:00,
2013-09-19 09:32:00,59.4,53.6,30.19,NW,314,0.0,0.0,81,0.00,,---,0.00,473.00,VWS V14.01,2013-09-19 13:32:00,
2013-09-19 09:37:00,60.0,53.8,30.20,NW,314,0.0,0.0,80,0.00,,---,0.00,485.00,VWS V14.01,2013-09-19 13:37:00,
2013-09-19 09:42:00,60.3,53.1,30.20,NW,314,0.0,0.0,77,0.00,,---,0.00,496.00,VWS V14.01,2013-09-19 13:42:00,
2013-09-19 09:47:00,60.5,53.3,30.19,NW,314,0.0,0.0,77,0.00,,---,0.00,506.00,VWS V14.01,2013-09-19 13:47:00,
2013-09-19 09:52:00,60.8,53.2,30.19,NW,314,0.0,0.0,76,0.00,,---,0.00,522.00,VWS V14.01,2013-09-19 13:52:00,
2013-09-19 09:57:00,61.2,53.2,30.19,NW,314,0.0,0.0,75,0.00,,---,0.00,534.00,VWS V14.01,2013-09-19 13:57:00,
2013-09-19 10:00:00,55.6,52.4,30.19,NW,314,0.0,0.0,89,0.00,,---,0.00,380.00,VWS V14.01,2013-09-19 14:00:00,
2013-09-19 10:02:00,61.6,54.7,30.19,NW,314,0.0,0.0,78,0.00,,---,0.00,547.00,VWS V14.01,2013-09-19 14:02:00,
2013-09-19 10:07:00,62.4,54.0,30.19,NW,314,0.0,0.0,74,0.00,,---,0.00,559.00,VWS V14.01,2013-09-19 14:07:00,
2013-09-19 10:12:00,62.9,54.5,30.19,NW,314,0.0,0.0,74,0.00,,---,0.00,568.00,VWS V14.01,2013-09-19 14:12:00,
2013-09-19 10:17:00,63.0,54.6,30.19,NW,314,0.0,0.0,74,0.00,,---,0.00,578.00,VWS V14.01,2013-09-19 14:17:00,
2013-09-19 10:22:00,63.1,54.7,30.19,NW,314,0.0,0.0,74,0.00,,---,0.00,591.00,VWS V14.01,2013-09-19 14:22:00,
2013-09-19 10:27:00,63.6,54.4,30.19,NW,314,0.0,0.0,72,0.00,,---,0.00,601.00,VWS V14.01,2013-09-19 14:27:00,
2013-09-19 10:30:00,59.1,53.3,30.19,NW,314,0.0,0.0,81,0.00,,---,0.00,464.00,VWS V14.01,2013-09-19 14:30:00,
2013-09-19 10:32:00,64.2,55.0,30.19,ESE,118,0.0,0.0,72,0.00,,---,0.00,610.00,VWS V14.01,2013-09-19 14:32:00,
2013-09-19 10:37:00,65.1,57.0,30.19,ESE,118,0.0,1.0,75,0.00,,---,0.00,622.00,VWS V14.01,2013-09-19 14:37:00,
2013-09-19 10:42:00,65.8,55.4,30.19,ESE,118,0.0,4.0,69,0.00,,---,0.00,633.00,VWS V14.01,2013-09-19 14:42:00,
2013-09-19 10:47:00,66.1,55.7,30.19,East,100,0.0,4.0,69,0.00,,---,0.00,640.00,VWS V14.01,2013-09-19 14:47:00,
2013-09-19 10:52:00,66.2,55.3,30.18,ESE,107,4.0,4.0,68,0.00,,---,0.00,647.00,VWS V14.01,2013-09-19 14:52:00,
2013-09-19 10:57:00,66.2,54.9,30.18,ESE,107,0.0,4.0,67,0.00,,---,0.00,657.00,VWS V14.01,2013-09-19 14:57:00,
2013-09-19 11:00:00,61.3,54.0,30.19,NW,314,0.0,0.0,77,0.00,,---,0.00,543.00,VWS V14.01,2013-09-19 15:00:00,
2013-09-19 11:02:00,66.5,56.4,30.18,ESE,107,0.0,2.0,70,0.00,,---,0.00,664.00,VWS V14.01,2013-09-19 15:02:00,
2013-09-19 11:07:00,66.8,56.3,30.18,SE,124,0.0,2.0,69,0.00,,---,0.00,673.00,VWS V14.01,2013-09-19 15:07:00,
2013-09-19 11:12:00,67.3,57.2,30.18,ESE,118,0.0,3.0,70,0.00,,---,0.00,680.00,VWS V14.01,2013-09-19 15:12:00,
2013-09-19 11:17:00,67.6,56.7,30.18,ESE,118,3.0,3.0,68,0.00,,---,0.00,687.00,VWS V14.01,2013-09-19 15:17:00,
2013-09-19 11:22:00,68.0,57.1,30.18,ESE,118,0.0,3.0,68,0.00,,---,0.00,693.00,VWS V14.01,2013-09-19 15:22:00,
2013-09-19 11:27:00,68.1,57.6,30.18,West,275,0.0,3.0,69,0.00,,---,0.00,700.00,VWS V14.01,2013-09-19 15:27:00,
2013-09-19 11:30:00,64.0,55.9,30.19,ESE,118,0.0,4.0,75,0.00,,---,0.00,608.00,VWS V14.01,2013-09-19 15:30:00,
2013-09-19 11:32:00,68.5,57.1,30.18,West,275,0.0,1.0,67,0.00,,---,0.00,705.00,VWS V14.01,2013-09-19 15:32:00,
2013-09-19 11:37:00,69.1,57.3,30.17,WNW,288,0.0,4.0,66,0.00,,---,0.00,714.00,VWS V14.01,2013-09-19 15:37:00,
2013-09-19 11:42:00,69.6,56.9,30.17,SE,127,0.0,4.0,64,0.00,,---,0.00,715.00,VWS V14.01,2013-09-19 15:42:00,
2013-09-19 11:47:00,69.3,55.3,30.17,NE,53,0.0,6.0,61,0.00,,---,0.00,721.00,VWS V14.01,2013-09-19 15:47:00,
2013-09-19 11:52:00,69.0,54.1,30.17,West,261,2.0,6.0,59,0.00,,---,0.00,726.00,VWS V14.01,2013-09-19 15:52:00,
2013-09-19 11:57:00,69.0,54.1,30.17,West,261,0.0,6.0,59,0.00,,---,0.00,728.00,VWS V14.01,2013-09-19 15:57:00,
2013-09-19 12:00:00,66.3,56.2,30.18,ESE,107,1.0,4.0,70,0.00,,---,0.00,661.00,VWS V14.01,2013-09-19 16:00:00,
2013-09-19 12:02:00,68.9,54.9,30.17,WNW,290,0.0,0.0,61,0.00,,---,0.00,731.00,VWS V14.01,2013-09-19 16:02:00,
2013-09-19 12:07:00,69.4,56.3,30.17,West,263,0.0,4.0,63,0.00,,---,0.00,737.00,VWS V14.01,2013-09-19 16:07:00,
2013-09-19 12:12:00,69.5,55.5,30.17,WNW,297,0.0,5.0,61,0.00,,---,0.00,740.00,VWS V14.01,2013-09-19 16:12:00,
2013-09-19 12:17:00,69.7,55.2,30.17,WNW,300,3.0,5.0,60,0.00,,---,0.00,740.00,VWS V14.01,2013-09-19 16:17:00,
2013-09-19 12:22:00,70.0,55.5,30.17,NW,318,0.0,5.0,60,0.00,,---,0.00,744.00,VWS V14.01,2013-09-19 16:22:00,
2013-09-19 12:27:00,70.4,55.4,30.17,West,278,0.0,5.0,59,0.00,,---,0.00,747.00,VWS V14.01,2013-09-19 16:27:00,
2013-09-19 12:30:00,68.3,56.9,30.18,West,275,1.0,3.0,67,0.00,,---,0.00,705.00,VWS V14.01,2013-09-19 16:30:00,
2013-09-19 12:32:00,70.7,54.7,30.17,West,265,0.0,1.0,57,0.00,,---,0.00,749.00,VWS V14.01,2013-09-19 16:32:00,
2013-09-19 12:37:00,70.4,53.5,30.17,NW,313,2.0,6.0,55,0.00,,---,0.00,749.00,VWS V14.01,2013-09-19 16:37:00,
2013-09-19 12:42:00,70.4,54.9,30.17,NW,313,0.0,6.0,58,0.00,,---,0.00,751.00,VWS V14.01,2013-09-19 16:42:00,
2013-09-19 12:47:00,70.5,53.6,30.17,WSW,256,2.0,6.0,55,0.00,,---,0.00,752.00,VWS V14.01,2013-09-19 16:47:00,
2013-09-19 12:52:00,70.7,54.2,30.17,NW,312,0.0,6.0,56,0.00,,---,0.00,751.00,VWS V14.01,2013-09-19 16:52:00,
2013-09-19 12:57:00,70.8,55.3,30.16,WSW,255,0.0,6.0,58,0.00,,---,0.00,749.00,VWS V14.01,2013-09-19 16:57:00,
2013-09-19 13:00:00,68.9,54.0,30.17,WNW,290,0.0,6.0,59,0.00,,---,0.00,731.00,VWS V14.01,2013-09-19 17:00:00,
2013-09-19 13:02:00,71.4,54.4,30.16,West,278,3.0,3.0,55,0.00,,---,0.00,751.00,VWS V14.01,2013-09-19 17:02:00,
2013-09-19 13:07:00,72.0,55.5,30.16,West,278,4.0,4.0,56,0.00,,---,0.00,749.00,VWS V14.01,2013-09-19 17:07:00,
2013-09-19 13:12:00,72.3,54.7,30.16,West,278,0.0,4.0,54,0.00,,---,0.00,747.00,VWS V14.01,2013-09-19 17:12:00,
2013-09-19 13:17:00,72.4,53.8,30.16,WNW,289,0.0,4.0,52,0.00,,---,0.00,747.00,VWS V14.01,2013-09-19 17:17:00,
2013-09-19 13:22:00,72.6,53.5,30.15,WNW,289,0.0,4.0,51,0.00,,---,0.00,744.00,VWS V14.01,2013-09-19 17:22:00,
2013-09-19 13:27:00,72.8,55.2,30.15,WNW,289,0.0,4.0,54,0.00,,---,0.00,742.00,VWS V14.01,2013-09-19 17:27:00,
2013-09-19 13:30:00,70.6,54.6,30.17,West,265,0.0,5.0,57,0.00,,---,0.00,747.00,VWS V14.01,2013-09-19 17:30:00,
2013-09-19 13:32:00,73.1,54.5,30.15,WNW,289,0.0,1.0,52,0.00,,---,0.00,740.00,VWS V14.01,2013-09-19 17:32:00,
2013-09-19 13:37:00,72.9,54.3,30.14,WNW,289,0.0,3.0,52,0.00,,---,0.00,735.00,VWS V14.01,2013-09-19 17:37:00,
2013-09-19 13:42:00,73.3,53.6,30.14,WNW,290,0.0,4.0,50,0.00,,---,0.00,733.00,VWS V14.01,2013-09-19 17:42:00,
2013-09-19 13:47:00,73.8,51.2,30.14,WNW,290,2.0,4.0,45,0.00,,---,0.00,726.00,VWS V14.01,2013-09-19 17:47:00,
2013-09-19 13:52:00,74.2,53.8,30.14,WNW,290,0.0,4.0,49,0.00,,---,0.00,724.00,VWS V14.01,2013-09-19 17:52:00,
2013-09-19 13:57:00,74.8,52.7,30.13,WSW,256,0.0,4.0,46,0.00,,---,0.00,715.00,VWS V14.01,2013-09-19 17:57:00,
2013-09-19 14:00:00,71.3,53.8,30.16,West,278,0.0,6.0,54,0.00,,---,0.00,751.00,VWS V14.01,2013-09-19 18:00:00,
2013-09-19 14:02:00,75.1,52.9,30.13,West,273,2.0,3.0,46,0.00,,---,0.00,710.00,VWS V14.01,2013-09-19 18:02:00,
2013-09-19 14:07:00,75.1,52.9,30.13,West,273,1.0,4.0,46,0.00,,---,0.00,705.00,VWS V14.01,2013-09-19 18:07:00,
2013-09-19 14:12:00,75.2,54.2,30.13,West,273,2.0,4.0,48,0.00,,---,0.00,694.00,VWS V14.01,2013-09-19 18:12:00,
2013-09-19 14:17:00,75.5,53.3,30.13,West,273,0.0,4.0,46,0.00,,---,0.00,689.00,VWS V14.01,2013-09-19 18:17:00,
2013-09-19 14:22:00,75.7,54.6,30.12,NW,313,0.0,4.0,48,0.00,,---,0.00,682.00,VWS V14.01,2013-09-19 18:22:00,
2013-09-19 14:27:00,76.1,56.1,30.12,NW,313,0.0,4.0,50,0.00,,---,0.00,675.00,VWS V14.01,2013-09-19 18:27:00,
2013-09-19 14:30:00,73.0,55.4,30.15,WNW,289,0.0,4.0,54,0.00,,---,0.00,742.00,VWS V14.01,2013-09-19 18:30:00,
2013-09-19 14:32:00,76.4,52.3,30.11,WNW,298,0.0,0.0,43,0.00,,---,0.00,664.00,VWS V14.01,2013-09-19 18:32:00,
2013-09-19 14:37:00,76.6,53.7,30.11,NW,308,0.0,1.0,45,0.00,,---,0.00,656.00,VWS V14.01,2013-09-19 18:37:00,
2013-09-19 14:42:00,76.4,53.5,30.11,NW,308,0.0,2.0,45,0.00,,---,0.00,647.00,VWS V14.01,2013-09-19 18:42:00,
2013-09-19 14:47:00,76.3,54.6,30.11,NW,308,0.0,2.0,47,0.00,,---,0.00,642.00,VWS V14.01,2013-09-19 18:47:00,
2013-09-19 14:52:00,75.9,56.0,30.11,East,88,0.0,3.0,50,0.00,,---,0.00,631.00,VWS V14.01,2013-09-19 18:52:00,
2013-09-19 14:57:00,76.1,55.6,30.11,NW,316,0.0,3.0,49,0.00,,---,0.00,622.00,VWS V14.01,2013-09-19 18:57:00,
2013-09-19 15:00:00,74.9,53.9,30.13,WSW,256,0.0,4.0,48,0.00,,---,0.00,712.00,VWS V14.01,2013-09-19 19:00:00,
2013-09-19 15:02:00,76.5,55.4,30.11,WNW,303,2.0,4.0,48,0.00,,---,0.00,610.00,VWS V14.01,2013-09-19 19:02:00,
2013-09-19 15:07:00,76.2,55.1,30.11,WSW,255,0.0,4.0,48,0.00,,---,0.00,603.00,VWS V14.01,2013-09-19 19:07:00,
2013-09-19 15:12:00,76.5,56.5,30.11,WSW,255,0.0,4.0,50,0.00,,---,0.00,592.00,VWS V14.01,2013-09-19 19:12:00,
2013-09-19 15:17:00,77.1,57.6,30.10,WSW,255,1.0,4.0,51,0.00,,---,0.00,578.00,VWS V14.01,2013-09-19 19:17:00,
2013-09-19 15:22:00,77.1,56.5,30.10,WSW,256,0.0,4.0,49,0.00,,---,0.00,568.00,VWS V14.01,2013-09-19 19:22:00,
2013-09-19 15:27:00,77.2,57.1,30.10,ESE,109,0.0,4.0,50,0.00,,---,0.00,559.00,VWS V14.01,2013-09-19 19:27:00,
2013-09-19 15:30:00,76.3,50.9,30.12,WNW,298,0.0,5.0,41,0.00,,---,0.00,666.00,VWS V14.01,2013-09-19 19:30:00,
2013-09-19 15:32:00,77.1,54.2,30.10,ENE,67,1.0,1.0,45,0.00,,---,0.00,547.00,VWS V14.01,2013-09-19 19:32:00,
2013-09-19 15:37:00,76.9,54.6,30.10,West,269,2.0,2.0,46,0.00,,---,0.00,536.00,VWS V14.01,2013-09-19 19:37:00,
2013-09-19 15:42:00,77.0,55.2,30.10,West,269,0.0,2.0,47,0.00,,---,0.00,522.00,VWS V14.01,2013-09-19 19:42:00,
2013-09-19 15:47:00,76.9,55.2,30.10,West,270,0.0,2.0,47,0.00,,---,0.00,510.00,VWS V14.01,2013-09-19 19:47:00,
2013-09-19 15:52:00,76.9,54.0,30.09,WNW,298,0.0,5.0,45,0.00,,---,0.00,499.00,VWS V14.01,2013-09-19 19:52:00,
2013-09-19 15:57:00,76.9,54.6,30.09,WNW,298,2.0,5.0,46,0.00,,---,0.00,485.00,VWS V14.01,2013-09-19 19:57:00,
2013-09-19 16:00:00,76.4,54.1,30.11,NW,316,0.0,3.0,46,0.00,,---,0.00,615.00,VWS V14.01,2013-09-19 20:00:00,
2013-09-19 16:02:00,76.7,54.4,30.09,WNW,298,0.0,2.0,46,0.00,,---,0.00,471.00,VWS V14.01,2013-09-19 20:02:00,
2013-09-19 16:07:00,76.7,53.8,30.09,West,273,1.0,4.0,45,0.00,,---,0.00,459.00,VWS V14.01,2013-09-19 20:07:00,
2013-09-19 16:12:00,76.4,53.5,30.09,West,267,0.0,5.0,45,0.00,,---,0.00,445.00,VWS V14.01,2013-09-19 20:12:00,
2013-09-19 16:17:00,76.3,54.0,30.09,West,267,0.0,5.0,46,0.00,,---,0.00,432.00,VWS V14.01,2013-09-19 20:17:00,
2013-09-19 16:22:00,76.5,55.9,30.09,West,267,0.0,5.0,49,0.00,,---,0.00,417.00,VWS V14.01,2013-09-19 20:22:00,
2013-09-19 16:27:00,76.3,53.4,30.09,West,267,0.0,5.0,45,0.00,,---,0.00,403.00,VWS V14.01,2013-09-19 20:27:00,
2013-09-19 16:30:00,77.2,55.4,30.10,ESE,109,0.0,4.0,47,0.00,,---,0.00,550.00,VWS V14.01,2013-09-19 20:30:00,
2013-09-19 16:32:00,76.2,56.2,30.09,West,267,0.0,1.0,50,0.00,,---,0.00,387.00,VWS V14.01,2013-09-19 20:32:00,
2013-09-19 16:37:00,76.3,56.3,30.09,WNW,294,0.0,1.0,50,0.00,,---,0.00,371.00,VWS V14.01,2013-09-19 20:37:00,
2013-09-19 16:42:00,76.2,56.2,30.09,WNW,294,0.0,1.0,50,0.00,,---,0.00,355.00,VWS V14.01,2013-09-19 20:42:00,
2013-09-19 16:47:00,76.4,55.3,30.09,WNW,294,0.0,1.0,48,0.00,,---,0.00,339.00,VWS V14.01,2013-09-19 20:47:00,
2013-09-19 16:52:00,76.5,56.5,30.09,WNW,294,0.0,1.0,50,0.00,,---,0.00,323.00,VWS V14.01,2013-09-19 20:52:00,
2013-09-19 16:57:00,76.1,57.2,30.09,WNW,294,0.0,1.0,52,0.00,,---,0.00,309.00,VWS V14.01,2013-09-19 20:57:00,
2013-09-19 17:00:00,76.7,53.8,30.09,WNW,298,1.0,5.0,45,0.00,,---,0.00,476.00,VWS V14.01,2013-09-19 21:00:00,
2013-09-19 17:02:00,75.7,56.8,30.09,WNW,294,0.0,0.0,52,0.00,,---,0.00,295.00,VWS V14.01,2013-09-19 21:02:00,
2013-09-19 17:07:00,75.0,55.7,30.09,WNW,294,0.0,0.0,51,0.00,,---,0.00,278.00,VWS V14.01,2013-09-19 21:07:00,
2013-09-19 17:12:00,74.6,55.8,30.09,WNW,294,0.0,0.0,52,0.00,,---,0.00,264.00,VWS V14.01,2013-09-19 21:12:00,
2013-09-19 17:17:00,74.0,56.3,30.09,WNW,294,0.0,1.0,54,0.00,,---,0.00,246.00,VWS V14.01,2013-09-19 21:17:00,
2013-09-19 17:22:00,73.3,55.2,30.10,WNW,294,0.0,1.0,53,0.00,,---,0.00,165.00,VWS V14.01,2013-09-19 21:22:00,
2013-09-19 17:27:00,72.6,56.5,30.09,WNW,294,0.0,1.0,57,0.00,,---,0.00,23.00,VWS V14.01,2013-09-19 21:27:00,
2013-09-19 17:30:00,76.2,55.1,30.09,West,267,0.0,5.0,48,0.00,,---,0.00,392.00,VWS V14.01,2013-09-19 21:30:00,
2013-09-19 17:32:00,72.0,56.9,30.09,WNW,294,0.0,0.0,59,0.00,,---,0.00,23.00,VWS V14.01,2013-09-19 21:32:00,
2013-09-19 17:37:00,71.4,56.8,30.09,WNW,294,0.0,0.0,60,0.00,,---,0.00,21.00,VWS V14.01,2013-09-19 21:37:00,
2013-09-19 17:42:00,70.9,56.3,30.09,WNW,294,0.0,0.0,60,0.00,,---,0.00,21.00,VWS V14.01,2013-09-19 21:42:00,
2013-09-19 17:47:00,70.3,57.6,30.09,WNW,294,0.0,0.0,64,0.00,,---,0.00,21.00,VWS V14.01,2013-09-19 21:47:00,
2013-09-19 17:52:00,69.6,57.8,30.09,WNW,294,0.0,0.0,66,0.00,,---,0.00,19.00,VWS V14.01,2013-09-19 21:52:00,
2013-09-19 17:57:00,68.6,57.2,30.09,WNW,294,0.0,0.0,67,0.00,,---,0.00,19.00,VWS V14.01,2013-09-19 21:57:00,
2013-09-19 18:00:00,75.8,56.4,30.09,WNW,294,0.0,1.0,51,0.00,,---,0.00,301.00,VWS V14.01,2013-09-19 22:00:00,
2013-09-19 18:02:00,67.9,56.1,30.09,WNW,294,0.0,0.0,66,0.00,,---,0.00,18.00,VWS V14.01,2013-09-19 22:02:00,
2013-09-19 18:07:00,67.6,57.1,30.09,WNW,294,0.0,0.0,69,0.00,,---,0.00,16.00,VWS V14.01,2013-09-19 22:07:00,
2013-09-19 18:12:00,67.2,57.1,30.09,WNW,294,0.0,0.0,70,0.00,,---,0.00,16.00,VWS V14.01,2013-09-19 22:12:00,
2013-09-19 18:17:00,66.9,57.2,30.09,WNW,294,0.0,0.0,71,0.00,,---,0.00,14.00,VWS V14.01,2013-09-19 22:17:00,
2013-09-19 18:22:00,66.4,57.1,30.09,WNW,294,0.0,0.0,72,0.00,,---,0.00,12.00,VWS V14.01,2013-09-19 22:22:00,
2013-09-19 18:27:00,65.7,57.2,30.09,WNW,294,0.0,0.0,74,0.00,,---,0.00,12.00,VWS V14.01,2013-09-19 22:27:00,
2013-09-19 18:30:00,72.2,56.6,30.09,WNW,294,0.0,1.0,58,0.00,,---,0.00,23.00,VWS V14.01,2013-09-19 22:30:00,
2013-09-19 18:32:00,64.9,56.8,30.09,WNW,294,0.0,0.0,75,0.00,,---,0.00,11.00,VWS V14.01,2013-09-19 22:32:00,
2013-09-19 18:37:00,64.5,57.1,30.09,WNW,294,0.0,0.0,77,0.00,,---,0.00,9.00,VWS V14.01,2013-09-19 22:37:00,
2013-09-19 18:42:00,63.9,56.6,30.09,WNW,294,0.0,0.0,77,0.00,,---,0.00,7.00,VWS V14.01,2013-09-19 22:42:00,
2013-09-19 18:47:00,63.4,56.1,30.09,WNW,294,0.0,0.0,77,0.00,,---,0.00,5.00,VWS V14.01,2013-09-19 22:47:00,
2013-09-19 18:52:00,63.0,56.0,30.10,WNW,294,0.0,0.0,78,0.00,,---,0.00,0.00,VWS V14.01,2013-09-19 22:52:00,
2013-09-19 18:57:00,62.5,55.9,30.10,WNW,294,0.0,0.0,79,0.00,,---,0.00,0.00,VWS V14.01,2013-09-19 22:57:00,
2013-09-19 19:00:00,68.1,56.7,30.09,WNW,294,0.0,0.0,67,0.00,,---,0.00,18.00,VWS V14.01,2013-09-19 23:00:00,
2013-09-19 19:02:00,62.2,56.0,30.10,WNW,294,0.0,0.0,80,0.00,,---,0.00,0.00,VWS V14.01,2013-09-19 23:02:00,
2013-09-19 19:07:00,61.8,56.2,30.10,WNW,294,0.0,0.0,82,0.00,,---,0.00,0.00,VWS V14.01,2013-09-19 23:07:00,
2013-09-19 19:12:00,61.5,56.0,30.10,WNW,294,0.0,0.0,82,0.00,,---,0.00,0.00,VWS V14.01,2013-09-19 23:12:00,
2013-09-19 19:17:00,61.1,55.6,30.10,WNW,294,0.0,0.0,82,0.00,,---,0.00,0.00,VWS V14.01,2013-09-19 23:17:00,
2013-09-19 19:22:00,60.7,55.5,30.10,WNW,294,0.0,0.0,83,0.00,,---,0.00,0.00,VWS V14.01,2013-09-19 23:22:00,
2013-09-19 19:27:00,60.3,55.5,30.10,WNW,294,0.0,0.0,84,0.00,,---,0.00,0.00,VWS V14.01,2013-09-19 23:27:00,
2013-09-19 19:30:00,65.1,57.0,30.09,WNW,294,0.0,0.0,75,0.00,,---,0.00,11.00,VWS V14.01,2013-09-19 23:30:00,
2013-09-19 19:32:00,59.8,55.0,30.10,WNW,294,0.0,0.0,84,0.00,,---,0.00,0.00,VWS V14.01,2013-09-19 23:32:00,
2013-09-19 19:37:00,59.3,54.8,30.10,WNW,294,0.0,0.0,85,0.00,,---,0.00,0.00,VWS V14.01,2013-09-19 23:37:00,
2013-09-19 19:42:00,58.9,54.7,30.11,WNW,294,0.0,0.0,86,0.00,,---,0.00,0.00,VWS V14.01,2013-09-19 23:42:00,
2013-09-19 19:47:00,58.5,54.7,30.11,WNW,294,0.0,0.0,87,0.00,,---,0.00,0.00,VWS V14.01,2013-09-19 23:47:00,
2013-09-19 19:52:00,58.0,54.2,30.11,WNW,294,0.0,0.0,87,0.00,,---,0.00,0.00,VWS V14.01,2013-09-19 23:52:00,
2013-09-19 19:57:00,57.7,54.2,30.11,WNW,294,0.0,0.0,88,0.00,,---,0.00,0.00,VWS V14.01,2013-09-19 23:57:00,
2013-09-19 20:00:00,62.3,56.1,30.09,WNW,294,0.0,0.0,80,0.00,,---,0.00,0.00,VWS V14.01,2013-09-20 00:00:00,
2013-09-19 20:02:00,57.2,54.0,30.11,WNW,294,0.0,0.0,89,0.00,,---,0.00,0.00,VWS V14.01,2013-09-20 00:02:00,
2013-09-19 20:07:00,57.0,53.8,30.11,WNW,294,0.0,0.0,89,0.00,,---,0.00,0.00,VWS V14.01,2013-09-20 00:07:00,
2013-09-19 20:12:00,56.7,53.5,30.12,WNW,294,0.0,0.0,89,0.00,,---,0.00,0.00,VWS V14.01,2013-09-20 00:12:00,
2013-09-19 20:17:00,56.4,53.5,30.12,WNW,294,0.0,0.0,90,0.00,,---,0.00,0.00,VWS V14.01,2013-09-20 00:17:00,
2013-09-19 20:22:00,56.1,53.2,30.12,WNW,294,0.0,0.0,90,0.00,,---,0.00,0.00,VWS V14.01,2013-09-20 00:22:00,
2013-09-19 20:27:00,55.8,53.2,30.12,WNW,294,0.0,0.0,91,0.00,,---,0.00,0.00,VWS V14.01,2013-09-20 00:27:00,
2013-09-19 20:30:00,59.9,55.1,30.10,WNW,294,0.0,0.0,84,0.00,,---,0.00,0.00,VWS V14.01,2013-09-20 00:30:00,
2013-09-19 20:32:00,55.5,52.9,30.12,WNW,294,0.0,0.0,91,0.00,,---,0.00,0.00,VWS V14.01,2013-09-20 00:32:00,
2013-09-19 20:37:00,55.3,52.7,30.12,WNW,294,0.0,0.0,91,0.00,,---,0.00,0.00,VWS V14.01,2013-09-20 00:37:00,
2013-09-19 20:42:00,55.0,52.7,30.12,WNW,294,0.0,0.0,92,0.00,,---,0.00,0.00,VWS V14.01,2013-09-20 00:42:00,
2013-09-19 20:47:00,54.8,52.5,30.12,WNW,294,0.0,0.0,92,0.00,,---,0.00,0.00,VWS V14.01,2013-09-20 00:47:00,
2013-09-19 20:52:00,54.6,52.3,30.12,WNW,294,0.0,0.0,92,0.00,,---,0.00,0.00,VWS V14.01,2013-09-20 00:52:00,
2013-09-19 20:57:00,54.4,52.1,30.12,WNW,294,0.0,0.0,92,0.00,,---,0.00,0.00,VWS V14.01,2013-09-20 00:57:00,
2013-09-19 21:00:00,57.3,53.8,30.11,WNW,294,0.0,0.0,88,0.00,,---,0.00,0.00,VWS V14.01,2013-09-20 01:00:00,
2013-09-19 21:02:00,54.2,52.2,30.12,WNW,294,0.0,0.0,93,0.00,,---,0.00,0.00,VWS V14.01,2013-09-20 01:02:00,
2013-09-19 21:07:00,53.9,51.9,30.12,WNW,294,0.0,0.0,93,0.00,,---,0.00,0.00,VWS V14.01,2013-09-20 01:07:00,
2013-09-19 21:12:00,53.7,51.7,30.12,WNW,294,0.0,0.0,93,0.00,,---,0.00,0.00,VWS V14.01,2013-09-20 01:12:00,
2013-09-19 21:17:00,53.4,51.4,30.12,WNW,294,0.0,0.0,93,0.00,,---,0.00,0.00,VWS V14.01,2013-09-20 01:17:00,
2013-09-19 21:22:00,53.2,51.2,30.12,WNW,294,0.0,0.0,93,0.00,,---,0.00,0.00,VWS V14.01,2013-09-20 01:22:00,
2013-09-19 21:27:00,53.1,51.4,30.12,WNW,294,0.0,0.0,94,0.00,,---,0.00,0.00,VWS V14.01,2013-09-20 01:27:00,
2013-09-19 21:30:00,55.6,53.0,30.12,WNW,294,0.0,0.0,91,0.00,,---,0.00,0.00,VWS V14.01,2013-09-20 01:30:00,
2013-09-19 21:32:00,52.9,51.2,30.12,WNW,294,0.0,0.0,94,0.00,,---,0.00,0.00,VWS V14.01,2013-09-20 01:32:00,
2013-09-19 21:37:00,52.7,51.0,30.12,WNW,294,0.0,0.0,94,0.00,,---,0.00,0.00,VWS V14.01,2013-09-20 01:37:00,
2013-09-19 21:42:00,52.6,50.9,30.12,WNW,294,0.0,0.0,94,0.00,,---,0.00,0.00,VWS V14.01,2013-09-20 01:42:00,
2013-09-19 21:47:00,52.4,50.7,30.12,WNW,294,0.0,0.0,94,0.00,,---,0.00,0.00,VWS V14.01,2013-09-20 01:47:00,
2013-09-19 21:52:00,52.3,50.6,30.12,WNW,294,0.0,0.0,94,0.00,,---,0.00,0.00,VWS V14.01,2013-09-20 01:52:00,
2013-09-19 21:57:00,52.3,50.6,30.12,WNW,294,0.0,0.0,94,0.00,,---,0.00,0.00,VWS V14.01,2013-09-20 01:57:00,
2013-09-19 22:00:00,54.2,52.2,30.12,WNW,294,0.0,0.0,93,0.00,,---,0.00,0.00,VWS V14.01,2013-09-20 02:00:00,
2013-09-19 22:02:00,52.2,50.5,30.12,WNW,294,0.0,0.0,94,0.00,,---,0.00,0.00,VWS V14.01,2013-09-20 02:02:00,
2013-09-19 22:07:00,52.1,50.4,30.12,WNW,294,0.0,0.0,94,0.00,,---,0.00,0.00,VWS V14.01,2013-09-20 02:07:00,
2013-09-19 22:12:00,51.9,50.5,30.12,WNW,294,0.0,0.0,95,0.00,,---,0.00,0.00,VWS V14.01,2013-09-20 02:12:00,
2013-09-19 22:17:00,51.6,49.9,30.12,WNW,294,0.0,0.0,94,0.00,,---,0.00,0.00,VWS V14.01,2013-09-20 02:17:00,
2013-09-19 22:22:00,51.4,49.7,30.12,WNW,294,0.0,0.0,94,0.00,,---,0.00,0.00,VWS V14.01,2013-09-20 02:22:00,
2013-09-19 22:27:00,51.3,49.9,30.12,WNW,294,0.0,0.0,95,0.00,,---,0.00,0.00,VWS V14.01,2013-09-20 02:27:00,
2013-09-19 22:30:00,53.0,51.3,30.12,WNW,294,0.0,0.0,94,0.00,,---,0.00,0.00,VWS V14.01,2013-09-20 02:30:00,
2013-09-19 22:32:00,51.2,49.8,30.11,WNW,294,0.0,0.0,95,0.00,,---,0.00,0.00,VWS V14.01,2013-09-20 02:32:00,
2013-09-19 22:37:00,51.1,49.7,30.11,WNW,294,0.0,0.0,95,0.00,,---,0.00,0.00,VWS V14.01,2013-09-20 02:37:00,
2013-09-19 22:42:00,50.9,49.5,30.11,WNW,294,0.0,0.0,95,0.00,,---,0.00,0.00,VWS V14.01,2013-09-20 02:42:00,
2013-09-19 22:46:00,50.8,49.4,30.11,WNW,294,0.0,0.0,95,0.00,,---,0.00,0.00,VWS V14.01,2013-09-20 02:46:00,
2013-09-19 22:51:00,50.7,49.3,30.11,WNW,294,0.0,0.0,95,0.00,,---,0.00,0.00,VWS V14.01,2013-09-20 02:51:00,
2013-09-19 22:56:00,50.6,49.2,30.11,WNW,294,0.0,0.0,95,0.00,,---,0.00,0.00,VWS V14.01,2013-09-20 02:56:00,
2013-09-19 23:00:00,52.2,50.5,30.12,WNW,294,0.0,0.0,94,0.00,,---,0.00,0.00,VWS V14.01,2013-09-20 03:00:00,
2013-09-19 23:01:00,50.4,49.0,30.11,WNW,294,0.0,0.0,95,0.00,,---,0.00,0.00,VWS V14.01,2013-09-20 03:01:00,
2013-09-19 23:06:00,50.3,48.9,30.11,WNW,294,0.0,0.0,95,0.00,,---,0.00,0.00,VWS V14.01,2013-09-20 03:06:00,
2013-09-19 23:11:00,50.1,48.7,30.11,WNW,294,0.0,0.0,95,0.00,,---,0.00,0.00,VWS V14.01,2013-09-20 03:11:00,
2013-09-19 23:16:00,49.9,48.5,30.10,WNW,294,0.0,0.0,95,0.00,,---,0.00,0.00,VWS V14.01,2013-09-20 03:16:00,
2013-09-19 23:21:00,49.8,48.7,30.10,WNW,294,0.0,0.0,96,0.00,,---,0.00,0.00,VWS V14.01,2013-09-20 03:21:00,
2013-09-19 23:26:00,49.8,48.7,30.11,WNW,294,0.0,0.0,96,0.00,,---,0.00,0.00,VWS V14.01,2013-09-20 03:26:00,
2013-09-19 23:30:00,51.2,49.8,30.12,WNW,294,0.0,0.0,95,0.00,,---,0.00,0.00,VWS V14.01,2013-09-20 03:30:00,
2013-09-19 23:31:00,49.8,48.7,30.11,WNW,294,0.0,0.0,96,0.00,,---,0.00,0.00,VWS V14.01,2013-09-20 03:31:00,
2013-09-19 23:36:00,49.7,48.6,30.10,WNW,294,0.0,0.0,96,0.00,,---,0.00,0.00,VWS V14.01,2013-09-20 03:36:00,
2013-09-19 23:41:00,49.7,48.6,30.10,WNW,294,0.0,0.0,96,0.00,,---,0.00,0.00,VWS V14.01,2013-09-20 03:41:00,
2013-09-19 23:46:00,49.5,48.4,30.10,WNW,294,0.0,0.0,96,0.00,,---,0.00,0.00,VWS V14.01,2013-09-20 03:46:00,
2013-09-19 23:51:00,49.3,48.2,30.10,WNW,294,0.0,0.0,96,0.00,,---,0.00,0.00,VWS V14.01,2013-09-20 03:51:00,
2013-09-19 23:56:00,49.2,48.1,30.11,WNW,294,0.0,0.0,96,0.00,,---,0.00,0.00,VWS V14.01,2013-09-20 03:56:00,